Jamestown, NY

9:25 PM EDT on May 26, 2017 (GMT -0400)
Chautauqua County-Jamestown

Weather History for KJHW - April, 2014

Change the Weather History Date:

Monday, April 14, 2014

  Actual Average Record
Temperature  
Mean Temperature 61 °F -  
Max Temperature 71 °F 54 °F 79 °F (1977)
Min Temperature 51 °F 30 °F 13 °F (1986)
Degree Days  
Heating Degree Days 4    
Growing Degree Days 11 (Base 50)    
Moisture  
Dew Point 49 °F    
Average Humidity 66    
Maximum Humidity 94    
Minimum Humidity 43    
Precipitation  
Precipitation 0.16 in - - ()
Sea Level Pressure  
Sea Level Pressure 29.71 in    
Wind  
Wind Speed 10 mph (SSW)    
Max Wind Speed 24 mph    
Max Gust Speed 43 mph    
Visibility 10 miles    
Events Thunderstorm    
Averages and records for this station are not official NWS values.
T = Trace of Precipitation, MM = Missing Value Source: NWS Daily Summary

Daily Weather History Graph

Daily Weather History Graph

Search for Another Location

Airport or City:

Trip Planner

Search our weather history database for the weather conditions in past years. The results will help you decide how hot, cold, wet, or windy it might be!

Date:

Astronomy

Apr. 14, 2014 Rise Set
Actual Time 6:38 AM EDT 7:57 PM EDT
Civil Twilight 6:09 AM EDT 8:26 PM EDT
Nautical Twilight 5:34 AM EDT 9:01 PM EDT
Astronomical Twilight 4:57 AM EDT 9:38 PM EDT
Moon 7:34 PM EDT (4/14) 6:09 AM EDT (4/14)
Length of Visible Light 14h 17m
Length of Day
13h 19m
Full, 100% of the Moon is Illuminated
Apr 14
Full
Apr 15
Full
Apr 22
Last Quarter
Apr 29
New
May 6
First Quarter

Hourly Weather History & Observations

Time (EDT) Temp. Dew Point Humidity Pressure Visibility Wind Dir Wind Speed Gust Speed Precip Events Conditions
12:15 AM 64.4 °F 46.4 °F 52% 29.83 in 10.0 mi SSE 4.6 mph - N/A   Clear
12:35 AM 64.4 °F 46.4 °F 52% 29.82 in 10.0 mi SSE 3.5 mph - N/A   Clear
12:55 AM 64.4 °F 46.4 °F 52% 29.81 in 10.0 mi SSE 4.6 mph - N/A   Clear
1:15 AM 64.4 °F 44.6 °F 49% 29.80 in 10.0 mi SSE 4.6 mph - N/A   Clear
1:35 AM 64.4 °F 44.6 °F 49% 29.79 in 10.0 mi SSE 6.9 mph - N/A   Clear
1:55 AM 62.6 °F 44.6 °F 52% 29.78 in 10.0 mi SSE 6.9 mph - N/A   Clear
2:15 AM 62.6 °F 44.6 °F 52% 29.78 in 10.0 mi South 10.4 mph - N/A   Clear
2:35 AM 62.6 °F 44.6 °F 52% 29.78 in 10.0 mi South 5.8 mph - N/A   Clear
2:55 AM 64.4 °F 44.6 °F 49% 29.77 in 10.0 mi South 8.1 mph - N/A   Clear
3:15 AM 64.4 °F 44.6 °F 49% 29.77 in 10.0 mi SSW 6.9 mph - N/A   Clear
3:35 AM 64.4 °F 44.6 °F 49% 29.76 in 10.0 mi South 8.1 mph - N/A   Clear
3:55 AM 66.2 °F 44.6 °F 46% 29.75 in 10.0 mi South 10.4 mph - N/A   Clear
4:15 AM 66.2 °F 46.4 °F 49% 29.75 in 10.0 mi South 9.2 mph - N/A   Clear
4:35 AM 66.2 °F 46.4 °F 49% 29.75 in 10.0 mi South 11.5 mph 18.4 mph N/A   Clear
4:55 AM 66.2 °F 46.4 °F 49% 29.75 in 10.0 mi South 13.8 mph 18.4 mph N/A   Clear
5:15 AM 66.2 °F 46.4 °F 49% 29.74 in 10.0 mi South 11.5 mph 16.1 mph N/A   Clear
5:35 AM 64.4 °F 46.4 °F 52% 29.73 in 10.0 mi South 11.5 mph - N/A   Clear
5:55 AM 64.4 °F 46.4 °F 52% 29.73 in 10.0 mi South 12.7 mph 17.3 mph N/A   Clear
6:15 AM 64.4 °F 46.4 °F 52% 29.72 in 10.0 mi South 11.5 mph 18.4 mph N/A   Clear
6:35 AM 64.4 °F 46.4 °F 52% 29.72 in 10.0 mi South 10.4 mph 21.9 mph N/A   Clear
6:55 AM 64.4 °F 48.2 °F 56% 29.72 in 10.0 mi South 11.5 mph - N/A   Clear
7:15 AM 64.4 °F 48.2 °F 56% 29.71 in 10.0 mi South 13.8 mph 20.7 mph N/A   Clear
7:35 AM 64.4 °F 48.2 °F 56% 29.71 in 10.0 mi South 13.8 mph 24.2 mph N/A   Clear
7:55 AM 66.2 °F 48.2 °F 52% 29.71 in 10.0 mi South 11.5 mph 19.6 mph N/A   Clear
8:15 AM 66.2 °F 48.2 °F 52% 29.70 in 10.0 mi South 13.8 mph 23.0 mph N/A   Clear
8:35 AM 66.2 °F 48.2 °F 52% 29.70 in 10.0 mi South 15.0 mph 24.2 mph N/A   Clear
8:55 AM 66.2 °F 48.2 °F 52% 29.69 in 10.0 mi South 17.3 mph 23.0 mph N/A   Clear
9:15 AM 66.2 °F 48.2 °F 52% 29.69 in 10.0 mi South 16.1 mph 27.6 mph N/A   Clear
9:35 AM 66.2 °F 48.2 °F 52% 29.68 in 10.0 mi South 16.1 mph 28.8 mph N/A   Clear
9:55 AM 68.0 °F 48.2 °F 49% 29.68 in 10.0 mi South 18.4 mph 25.3 mph N/A   Clear
10:15 AM 68.0 °F 48.2 °F 49% 29.68 in 10.0 mi South 20.7 mph 32.2 mph N/A   Clear
10:35 AM 68.0 °F 48.2 °F 49% 29.68 in 10.0 mi South 18.4 mph 33.4 mph N/A   Partly Cloudy
10:55 AM 69.8 °F 48.2 °F 46% 29.68 in 10.0 mi SSW 16.1 mph 28.8 mph N/A   Partly Cloudy
11:15 AM 69.8 °F 48.2 °F 46% 29.68 in 10.0 mi SSW 15.0 mph 33.4 mph N/A   Partly Cloudy
11:35 AM 69.8 °F 50.0 °F 49% 29.68 in 10.0 mi SSW 24.2 mph 36.8 mph N/A   Partly Cloudy
11:55 AM 71.6 °F 48.2 °F 43% 29.68 in 10.0 mi SSW 16.1 mph 29.9 mph N/A   Mostly Cloudy
12:15 PM 69.8 °F 48.2 °F 46% 29.68 in 10.0 mi SSW 20.7 mph 34.5 mph N/A   Overcast
12:35 PM 69.8 °F 48.2 °F 46% 29.67 in 10.0 mi SSW 24.2 mph 36.8 mph N/A   Overcast
12:55 PM 69.8 °F 48.2 °F 46% 29.67 in 10.0 mi SSW 16.1 mph 33.4 mph N/A   Overcast
1:15 PM 69.8 °F 48.2 °F 46% 29.66 in 10.0 mi SSW 18.4 mph 32.2 mph N/A   Overcast
1:35 PM 69.8 °F 48.2 °F 46% 29.66 in 10.0 mi South 12.7 mph 32.2 mph N/A   Overcast
1:55 PM 69.8 °F 48.2 °F 46% 29.65 in 10.0 mi South 18.4 mph 26.5 mph N/A   Overcast
2:15 PM 69.8 °F 50.0 °F 49% 29.64 in 10.0 mi South 18.4 mph 28.8 mph N/A   Overcast
2:35 PM 60.8 °F 53.6 °F 77% 29.67 in 5.0 mi SW 16.1 mph 42.6 mph 0.05 in Thunderstorm Overcast
2:55 PM 60.8 °F 55.4 °F 82% 29.68 in 10.0 mi SSW 9.2 mph - 0.05 in   Overcast
3:15 PM 60.8 °F 55.4 °F 82% 29.69 in 10.0 mi SSW 15.0 mph 23.0 mph N/A   Overcast
3:35 PM 60.8 °F 55.4 °F 82% 29.69 in 10.0 mi SSW 19.6 mph 31.1 mph N/A   Mostly Cloudy
3:55 PM 60.8 °F 53.6 °F 77% 29.69 in 10.0 mi SSW 21.9 mph 28.8 mph N/A   Overcast
4:15 PM 59.0 °F 53.6 °F 82% 29.68 in 10.0 mi SSW 17.3 mph 23.0 mph N/A   Overcast
4:35 PM 59.0 °F 55.4 °F 88% 29.68 in 10.0 mi South 13.8 mph 20.7 mph N/A   Overcast
4:55 PM 59.0 °F 55.4 °F 88% 29.69 in 10.0 mi South 13.8 mph - N/A   Overcast
5:15 PM 59.0 °F 55.4 °F 88% 29.69 in 8.0 mi SSW 16.1 mph 23.0 mph N/A   Overcast
5:35 PM 59.0 °F 55.4 °F 88% 29.68 in 10.0 mi SSW 12.7 mph 21.9 mph N/A   Overcast
5:55 PM 59.0 °F 55.4 °F 88% 29.69 in 4.0 mi SSW 11.5 mph 19.6 mph 0.03 in   Overcast
6:15 PM 57.2 °F 55.4 °F 94% 29.68 in 5.0 mi South 10.4 mph 17.3 mph N/A   Overcast
6:35 PM 57.2 °F 55.4 °F 94% 29.68 in 10.0 mi South 15.0 mph 21.9 mph N/A   Overcast
6:55 PM 57.2 °F 55.4 °F 94% 29.68 in 10.0 mi SSW 11.5 mph 19.6 mph N/A   Overcast
7:15 PM 57.2 °F 53.6 °F 88% 29.68 in 9.0 mi South 11.5 mph 18.4 mph N/A   Overcast
7:35 PM 57.2 °F 55.4 °F 94% 29.68 in 10.0 mi WSW 9.2 mph - N/A   Overcast
7:55 PM 55.4 °F 53.6 °F 94% 29.68 in 10.0 mi Calm Calm - 0.05 in   Overcast
8:15 PM 53.6 °F 51.8 °F 94% 29.69 in 10.0 mi West 13.8 mph - 0.02 in   Overcast
8:35 PM 53.6 °F 50.0 °F 88% 29.69 in 10.0 mi SW 6.9 mph - 0.02 in   Overcast
8:55 PM 53.6 °F 50.0 °F 88% 29.69 in 10.0 mi SW 5.8 mph - 0.03 in   Mostly Cloudy
9:15 PM 53.6 °F 50.0 °F 88% 29.69 in 10.0 mi SW 5.8 mph - N/A   Overcast
9:35 PM 51.8 °F 50.0 °F 94% 29.70 in 10.0 mi SW 5.8 mph - N/A   Overcast
9:55 PM 51.8 °F 50.0 °F 94% 29.71 in 10.0 mi SSW 5.8 mph - N/A   Overcast
10:15 PM 51.8 °F 50.0 °F 94% 29.70 in 9.0 mi SW 4.6 mph - N/A   Overcast
10:35 PM 51.8 °F 50.0 °F 94% 29.69 in 10.0 mi SSW 4.6 mph - N/A   Mostly Cloudy
10:55 PM 51.8 °F 50.0 °F 94% 29.69 in 8.0 mi South 4.6 mph - N/A   Overcast
11:15 PM 51.8 °F 50.0 °F 94% 29.68 in 10.0 mi Calm Calm - N/A   Overcast
11:35 PM 51.8 °F 48.2 °F 88% 29.66 in 10.0 mi South 3.5 mph - N/A   Overcast
11:55 PM 51.8 °F 50.0 °F 94% 29.66 in 9.0 mi SSW 3.5 mph - N/A   Overcast